Satellite: SRMSAT Catalog number: 37841 Epoch time: 12201.20948642 Element set: 0191 Inclination: 019.9720 deg RA of node: 169.7497 deg Eccentricity: 0.0012278 Arg of perigee: 183.0207 deg Mean anomaly: 177.0151 deg Mean motion: 14.10149976 rev/day Decay rate: 2.64e-06 rev/day^2 Epoch rev: 03972 Checksum: 293
Satellite: RAX-2 Catalog number: 37853 Epoch time: 12202.84965708 Element set: 235 Inclination: 101.7119 deg RA of node: 258.3665 deg Eccentricity: 0.0246310 Arg of perigee: 254.8248 deg Mean anomaly: 102.5566 deg Mean motion: 14.80220244 rev/day Decay rate: 1.301e-05 rev/day^2 Epoch rev: 3937 Checksum: 284
Satellite: AUBIESAT Catalog number: 37854 Epoch time: 12201.84944470 Element set: 0244 Inclination: 101.7104 deg RA of node: 257.2007 deg Eccentricity: 0.0246774 Arg of perigee: 256.6686 deg Mean anomaly: 100.6849 deg Mean motion: 14.80618884 rev/day Decay rate: 2.778e-05 rev/day^2 Epoch rev: 03922 Checksum: 313
Satellite: HRBE Catalog number: 37855 Epoch time: 12201.86639046 Element set: 0239 Inclination: 101.7137 deg RA of node: 257.1720 deg Eccentricity: 0.0247351 Arg of perigee: 257.0429 deg Mean anomaly: 100.3016 deg Mean motion: 14.80464264 rev/day Decay rate: 2.438e-05 rev/day^2 Epoch rev: 03922 Checksum: 276
Satellite: RS-39 Catalog number: 38051 Epoch time: 12202.89467069 Element set: 532 Inclination: 051.6351 deg RA of node: 359.1587 deg Eccentricity: 0.0014876 Arg of perigee: 155.4714 deg Mean anomaly: 000.3815 deg Mean motion: 15.24794552 rev/day Decay rate: 6.939e-05 rev/day^2 Epoch rev: 2711 Checksum: 315
Satellite: E-STAR Catalog number: 38079 Epoch time: 12202.51230909 Element set: 365 Inclination: 069.4863 deg RA of node: 239.4126 deg Eccentricity: 0.0736428 Arg of perigee: 205.9120 deg Mean anomaly: 150.3066 deg Mean motion: 14.16908180 rev/day Decay rate: 2.3081e-04 rev/day^2 Epoch rev: 2230 Checksum: 277
Satellite: GOLIAT Catalog number: 38085 Epoch time: 12202.52724245 Element set: 336 Inclination: 069.4929 deg RA of node: 239.7500 deg Eccentricity: 0.0740400 Arg of perigee: 206.2396 deg Mean anomaly: 149.9420 deg Mean motion: 14.15906229 rev/day Decay rate: 2.3495e-04 rev/day^2 Epoch rev: 2229 Checksum: 295
Satellite: HORYU-2 Catalog number: 38340 Epoch time: 12202.38380381 Element set: 55 Inclination: 098.1761 deg RA of node: 142.1895 deg Eccentricity: 0.0011936 Arg of perigee: 222.8757 deg Mean anomaly: 137.1475 deg Mean motion: 14.70045877 rev/day Decay rate: 5.85e-06 rev/day^2 Epoch rev: 935 Checksum: 302
/EX
participants (1)
-
Ray Hoad